Weather Roundup
Issued by NWS Springfield, MO

Home | Current Version | Previous Version | Text Only | Print | Product List | Glossary On
Versions: 1 2 3 4 5 6 7 8 9 10 11 12 13 14 15 16 17 18 19 20 21 22 23 24 25 26 27 28 29 30 31 32 33 34 35 36 37 38 39 40 41 42 43 44 45 46 47 48 49 50
000
NZUS99 KSGF 270307
HRRSGF

HOURLY WEATHER
NATIONAL WEATHER SERVICE SPRINGFIELD MO
900 PM CST FRI DEC 26 2014

......SGF CWA......

CITY           SKY/WX    TMP DP  RH WIND       PRES   REMARKS
SPRINGFIELD    CLOUDY    49  47  93 S14       30.00R
JOPLIN         CLOUDY    52  50  93 S9        29.99R
WEST PLAINS    LGT RAIN  45  43  93 SE9       30.06S FOG
ROLLA          LGT RAIN  47  43  86 S10       30.01R FOG
OSAGE BEACH    CLOUDY    50  45  81 S12       30.01R
BRANSON        CLOUDY    48  48 100 S6        30.03S

......SURROUNDING SGF CWA......

CITY           SKY/WX    TMP DP  RH WIND       PRES   REMARKS
CHANUTE        CLOUDY    42  38  85 NW6       29.99R
PARSONS        CLOUDY    44  40  85 N5        30.00S
COFFEYVILLE    CLOUDY    45  40  82 N8        29.99R
EMPORIA        CLOUDY    36  32  85 W8        30.02R WCI  30
GROVE OK       CLOUDY    54  54 100 S8        30.01R
ROGERS AR      CLOUDY    51  50  96 S8        30.02R
SILOAM SPRINGS CLOUDY    52  45  76 S6        30.03R
HARRISON AR    CLOUDY    48  48 100 SE10      30.04R
NEAR YELLVILLE CLOUDY    48  45  87 CALM      30.06R

......KANSAS AND MISSOURI......

CITY           SKY/WX    TMP DP  RH WIND       PRES   REMARKS
KANSAS CTY INT CLOUDY    39  34  82 N3        29.97F
DOWNTOWN KC    CLOUDY    41  34  76 CALM      29.98S
COLUMBIA       CLOUDY    50  48  93 S14       29.99R
SEDALIA        CLOUDY    54  48  80 S10       29.98R
ST JOSEPH      CLOUDY    37  33  85 NW6       30.00R WCI  32
ST LOUIS       MOCLDY    53  40  61 S10       30.04S
SPIRIT OF STL  CLOUDY    53  40  61 S7        30.02S
KIRKSVILLE     LGT RAIN  47  45  93 N3        29.95S FOG
WICHITA        CLOUDY    35  30  82 NW13      30.08R WCI  26
TOPEKA         CLOUDY    38  33  82 NW5       30.01S WCI  34
OLATHE         CLOUDY    40  36  86 N5        29.96F

......TENNESSEE......

CITY           SKY/WX    TMP DP  RH WIND       PRES   REMARKS
MEMPHIS        CLOUDY    51  43  74 S10G20    30.14S
NASHVILLE      CLOUDY    47  38  71 SE7       30.22F

......ARKANSAS.......

CITY           SKY/WX    TMP DP  RH WIND       PRES   REMARKS
FAYETTEVILLE   CLOUDY    50  50 100 S12       30.03R
FT SMITH       CLOUDY    50  48  93 E7        30.03R
LITTLE ROCK    LGT RAIN  52  48  87 SE9       30.08S FOG

......OKLAHOMA.......

CITY           SKY/WX    TMP DP  RH WIND       PRES   REMARKS
TULSA          LGT RAIN  50  48  93 NW14      30.00R
PONCA CITY     PTCLDY    38  32  79 NW9       30.06R WCI  31
MCALESTER      CLOUDY    56  54  93 SE3       30.01R
OKLAHOMA CITY  MOCLDY    39  31  72 N22       30.06R WCI  29

......IOWA............

CITY           SKY/WX    TMP DP  RH WIND       PRES   REMARKS
DES MOINES     CLOUDY    35  32  88 N3        29.98S
QUAD CITIES    CLOUDY    45  39  79 E6        29.96F

......ILLINOIS........

CITY           SKY/WX    TMP DP  RH WIND       PRES   REMARKS
QUINCY         CLOUDY    52  44  74 S13       29.96S
CHICAGO        CLOUDY    47  41  80 S7        30.03R




USA.gov is the U.S. government's official web portal to all federal, state and local government web resources and services.